Theta_e
275 277 278 280 280 281 279 279 274 270 273 274 277 279 278 284 281 278 280 279 280 283 283 283 283 284 285 285 285 287 287 288 289 291 293 293 293 294 294 294 294 295 295 294
267 275 281 279 281 282 281 281 281 279 279 280 282 281 284 280 276 277 278 278 277 282 283 282 283 283 284 284 285 286 285 285 288 289 290 290 292 290 290 290 290 290 291 290
263 268 267 270 275 280 282 279 278 274 279 281 280 283 282 282 280 279 281 281 279 279 278 278 281 282 282 283 284 284 284 284 285 286 286 287 287 288 286 286 287 286 286 287
268 267 263 276 280 281 279 278 281 280 280 283 283 284 285 284 283 283 282 282 281 280 279 278 279 280 282 282 283 283 283 283 284 284 284 285 284 284 283 284 284 283 283 284
268 269 272 275 280 279 280 279 283 283 283 284 284 285 284 287 284 283 282 281 280 279 278 278 277 279 281 281 281 281 281 282 283 284 283 283 282 282 282 282 282 281 282 282
262 266 260 275 283 284 282 276 283 285 284 282 283 277 278 282 284 282 282 281 280 280 279 277 277 279 279 279 279 279 280 281 282 282 282 282 281 281 281 281 281 281 281 281
268 268 269 278 282 283 273 279 283 285 284 283 282 282 281 283 282 282 281 281 279 277 276 274 276 278 278 277 276 277 279 280 281 281 282 282 281 281 281 280 280 279 279 280
267 266 265 281 283 280 284 284 284 284 284 285 284 282 282 282 282 281 280 280 279 278 276 273 275 277 276 275 274 275 276 278 279 279 281 281 279 279 279 279 278 278 277 277
271 272 280 285 284 286 285 285 284 284 285 286 284 282 282 281 281 281 280 279 277 274 273 271 269 271 272 271 271 272 275 279 279 277 279 279 278 279 279 278 278 277 277 276
272 277 279 281 286 285 284 285 285 285 285 285 284 283 281 281 280 280 277 275 272 273 271 269 267 269 267 268 268 268 277 279 280 279 274 276 279 279 278 278 277 277 277 276
272 276 275 279 280 284 287 285 285 284 285 286 284 282 281 281 280 279 276 272 273 277 274 271 266 264 261 264 264 275 278 278 279 279 279 273 274 275 277 279 279 277 277 277
275 279 280 280 279 281 283 285 286 285 283 283 284 284 280 280 279 278 275 270 273 273 275 271 265 264 262 259 265 276 277 278 278 278 277 274 271 270 278 280 280 280 280 279
282 276 277 276 274 276 282 284 285 284 284 282 279 280 277 276 274 274 270 270 271 274 275 268 266 265 262 260 273 275 277 278 278 278 277 271 265 264 263 268 277 277 278 278
278 276 277 273 280 277 278 276 277 277 278 280 281 272 274 275 267 273 273 274 271 267 268 267 265 266 262 260 272 275 275 278 278 277 277 276 264 260 258 259 259 262 269 274
280 280 283 273 270 272 266 267 273 279 281 275 271 279 275 274 274 275 274 265 263 263 263 262 264 266 260 259 272 275 273 276 278 277 276 276 274 259 257 256 255 254 256 267
279 278 277 275 280 272 271 267 275 278 277 281 275 275 277 278 277 272 267 265 268 271 270 266 266 262 261 260 273 276 275 275 276 271 274 275 272 259 257 255 255 253 254 260
273 275 267 269 276 279 275 277 279 280 279 278 280 279 273 271 262 263 266 265 269 262 264 267 268 263 261 262 273 276 276 275 274 270 260 263 259 259 256 254 255 253 254 255
283 285 279 278 277 277 277 276 278 279 278 280 279 274 274 271 276 274 270 263 257 258 260 262 263 263 261 262 270 276 277 275 273 273 266 256 256 255 256 255 254 254 254 253
282 282 280 278 276 276 277 277 278 280 280 276 274 275 277 276 277 274 265 264 264 266 272 266 266 263 263 262 264 273 275 275 270 268 268 257 255 253 254 254 254 253 253 253
277 280 277 277 274 276 278 276 276 277 278 276 276 275 274 275 273 268 267 269 271 271 266 267 267 264 265 264 268 266 269 268 265 262 259 259 260 259 257 256 255 255 252 252
270 272 275 276 276 275 276 275 275 276 275 277 276 277 277 277 270 268 264 267 271 264 262 264 268 268 267 266 267 265 265 264 264 265 263 263 261 260 259 258 257 258 257 254
266 266 269 271 271 273 270 271 275 276 273 275 276 277 275 271 268 267 270 271 262 266 264 263 266 267 268 267 267 266 265 266 266 265 263 263 263 263 262 260 260 260 259 258
266 264 265 265 266 268 263 265 268 271 272 274 274 275 276 275 271 270 270 271 260 264 266 266 265 266 268 267 266 266 266 266 266 265 265 265 265 265 265 264 263 261 259 259
262 264 263 260 260 262 266 265 263 262 264 265 269 270 270 266 261 260 260 264 268 267 266 265 267 269 268 266 266 266 266 266 266 265 265 265 264 263 263 263 262 261 260 260
264 264 261 262 262 264 263 261 259 258 258 259 258 259 261 260 269 268 261 262 266 264 263 267 269 269 266 266 265 265 265 266 265 264 263 263 263 263 263 262 262 262 262 261
263 264 263 263 264 263 264 262 264 262 261 258 257 257 258 260 262 263 263 263 263 263 262 266 267 267 266 265 265 265 265 265 263 263 263 263 263 263 263 262 262 262 262 261
260 262 261 263 262 263 263 264 266 265 264 264 264 260 262 263 263 262 262 262 262 262 263 263 265 265 265 264 264 264 264 264 264 263 263 263 263 263 262 262 262 262 261 261
Wind_Speed
7 8 3 7 9 9 11 8 6 5 5 6 6 8 6 6 6 7 7 9 10 11 11 12 12 12 13 14 13 14 15 13 14 12 9 10 12 11 11 12 12 11 11 11
6 5 4 11 13 11 12 13 10 8 16 6 6 2 7 7 4 6 6 6 7 8 11 10 11 11 11 11 11 11 14 15 13 12 10 12 11 10 12 12 12 12 11 12
7 3 6 7 10 14 8 4 7 6 8 4 4 8 8 6 4 6 5 5 6 6 6 7 9 9 10 11 11 11 12 12 12 10 12 11 11 12 12 11 10 11 11 11
5 6 4 7 2 3 7 6 12 2 5 7 6 4 5 5 5 4 2 3 4 4 5 6 7 7 6 8 10 11 11 9 9 10 9 12 12 12 10 8 11 11 12 10
0 3 9 5 5 7 8 9 15 15 9 7 3 4 8 9 7 5 5 4 2 1 2 4 6 7 7 9 9 10 11 11 12 11 11 10 11 11 8 8 8 9 8 8
2 1 5 6 2 3 2 6 8 15 11 8 7 2 5 4 7 6 6 4 4 2 2 4 6 5 6 8 9 11 10 9 9 8 10 10 9 9 6 5 7 6 8 8
3 5 12 8 3 4 5 7 6 12 8 10 7 6 3 6 4 5 5 5 4 3 4 2 4 4 6 6 8 7 7 7 8 8 8 8 8 8 7 6 7 8 8 7
4 3 10 8 6 7 5 2 3 7 8 12 6 8 6 7 7 7 7 5 4 3 3 3 4 4 5 6 5 5 5 6 8 9 7 8 8 7 7 7 8 8 8 7
13 11 4 12 4 6 0 3 4 6 7 10 9 8 8 8 8 8 8 6 4 4 3 1 2 3 2 3 4 4 5 7 6 7 7 5 5 8 7 7 8 9 8 8
3 6 15 10 12 8 4 6 3 5 7 10 8 10 9 7 7 7 6 6 4 5 4 3 1 2 1 2 2 4 5 5 4 4 4 5 4 4 6 7 8 8 8 9
8 10 5 13 13 16 12 8 7 5 8 12 9 8 9 8 8 8 8 6 7 9 6 7 5 4 3 2 1 4 4 2 3 3 4 3 3 3 4 6 7 4 4 4
11 10 6 6 3 7 13 15 15 10 7 8 9 10 8 8 7 8 9 5 6 6 6 6 4 4 4 2 3 3 3 2 2 2 2 2 2 4 8 6 7 10 12 8
11 5 6 4 5 3 10 13 12 13 11 9 7 8 7 6 5 6 5 7 8 11 9 4 6 5 4 5 4 4 5 4 3 2 3 2 3 3 3 5 6 8 12 14
5 4 7 4 9 8 8 5 5 4 6 8 9 4 5 7 4 8 11 12 7 5 6 6 5 7 5 5 4 4 3 4 3 2 2 2 3 2 2 3 3 4 8 11
19 16 15 2 1 5 2 5 6 10 11 8 5 10 10 10 9 13 8 5 4 4 4 5 6 8 5 4 5 4 3 3 3 3 2 2 2 2 2 2 1 1 3 5
6 12 10 12 15 7 8 5 9 12 8 11 10 11 13 11 9 7 7 9 9 11 10 8 8 3 6 5 5 4 4 4 4 2 3 4 3 3 2 2 1 1 2 2
5 8 3 8 16 17 16 12 14 12 10 11 18 13 10 8 4 5 7 8 9 5 6 8 8 6 7 7 7 4 4 4 5 3 2 3 2 3 3 3 2 1 2 3
16 16 8 8 9 10 11 14 13 11 13 16 8 11 11 13 17 13 10 8 3 4 7 7 7 7 7 8 7 5 6 5 5 5 3 3 3 3 3 3 3 3 2 2
16 22 13 10 9 8 9 11 15 15 10 9 11 15 17 15 13 8 9 10 9 9 12 11 11 10 10 10 9 6 7 8 5 4 4 4 3 3 3 3 4 4 3 3
9 11 8 13 8 11 11 8 9 10 9 11 10 9 12 13 11 9 10 14 15 8 7 10 13 11 11 11 12 7 7 7 6 5 4 4 4 4 4 4 4 4 3 3
8 8 10 10 11 9 10 5 8 11 10 13 15 16 17 12 10 10 7 8 9 9 6 9 10 8 8 9 9 7 7 7 6 6 6 5 4 4 4 4 4 4 3 3
4 5 7 8 7 7 5 6 8 7 9 11 11 9 9 9 10 11 8 8 3 12 9 7 8 10 9 13 8 7 7 7 6 5 5 5 5 5 5 4 5 4 4 4
6 5 6 6 6 5 1 3 4 5 8 10 12 12 13 10 9 10 11 11 5 7 7 7 9 12 13 9 7 7 8 8 7 6 5 5 5 5 4 5 4 4 4 4
4 5 5 5 2 3 4 4 5 4 4 3 4 5 7 5 1 0 2 6 12 13 7 7 10 14 14 8 7 7 6 6 5 5 4 4 4 3 4 4 4 3 4 4
2 4 4 3 2 3 3 1 1 1 3 4 2 2 4 2 3 6 4 3 7 7 5 9 12 13 8 7 7 6 6 5 5 4 4 4 4 5 5 5 5 5 5 5
5 4 3 4 3 2 1 2 1 1 1 2 2 3 3 3 3 4 4 5 4 5 4 6 6 7 6 6 6 6 5 5 5 4 5 4 4 4 5 5 4 5 5 4
2 1 2 3 2 3 1 1 1 3 2 2 3 3 4 3 3 3 4 4 3 3 3 3 5 6 5 5 4 4 4 3 4 4 4 4 4 4 4 4 3 4 3 4
Wind_Direction
261 254 220 254 254 255 234 231 197 245 239 239 229 226 245 292 296 325 329 339 340 348 354 350 352 360 3 7 359 6 14 11 21 13 15 40 47 53 58 57 57 55 61 50
297 314 246 274 261 253 240 241 256 260 283 207 216 174 265 265 281 306 313 309 309 342 356 353 356 358 355 360 360 9 28 10 14 17 14 39 42 38 53 55 54 52 51 54
276 342 326 304 230 200 215 205 169 190 226 200 227 208 237 252 209 247 260 291 325 350 337 329 350 355 2 357 359 12 34 17 8 13 21 29 39 48 40 49 58 58 53 53
287 347 9 248 265 216 200 226 214 218 192 206 220 228 227 226 213 227 251 327 345 339 341 343 335 354 353 16 8 19 23 21 15 23 26 28 35 44 34 38 48 53 52 45
22 272 293 301 208 180 180 277 200 208 204 211 167 358 281 208 193 186 159 176 203 278 347 348 345 344 5 25 22 24 18 10 12 16 25 25 33 36 24 35 47 58 54 47
34 167 220 244 203 184 184 290 189 190 196 163 129 190 260 154 164 164 162 167 156 130 39 36 353 343 38 31 28 17 4 2 1 4 24 26 23 26 16 20 49 54 54 39
181 255 282 242 149 149 79 241 167 180 162 152 184 193 185 158 165 157 174 165 132 98 81 23 349 2 41 24 33 357 347 354 4 14 16 22 26 26 22 24 40 39 45 34
133 215 287 160 83 179 233 313 186 171 173 183 166 157 165 188 171 168 169 167 170 134 78 9 15 15 53 49 352 352 2 6 15 12 12 20 21 15 21 26 34 33 31 31
186 213 235 202 201 232 234 271 237 184 178 179 169 180 180 194 189 188 181 177 168 157 192 261 37 54 63 358 1 13 43 39 26 18 9 359 31 40 38 32 38 33 28 21
64 255 230 228 245 245 233 227 239 221 188 170 180 180 193 190 191 186 176 178 163 164 215 251 181 74 122 336 353 79 63 49 40 39 15 0 8 46 52 43 43 39 32 26
267 275 297 258 233 237 222 218 247 213 194 199 178 192 184 193 192 191 184 179 180 194 201 219 182 192 186 194 145 115 104 99 68 55 39 5 360 13 56 44 54 40 21 24
223 208 177 233 216 202 203 211 210 195 200 205 193 197 179 199 195 182 190 169 194 205 209 227 195 198 183 187 134 141 142 122 100 83 59 20 19 7 29 59 63 55 48 43
243 193 205 231 255 209 208 216 200 195 201 190 206 185 174 190 193 187 175 180 197 204 212 187 198 208 187 179 188 164 160 154 144 99 60 26 33 41 16 340 52 45 32 30
216 106 293 193 240 204 197 194 183 197 197 198 191 153 162 179 134 186 199 207 193 184 197 192 191 220 182 172 195 165 188 190 170 148 130 91 86 59 52 46 3 337 354 17
230 208 232 156 97 212 159 137 176 207 205 206 195 189 176 180 193 204 198 154 134 173 215 180 206 231 168 168 190 186 180 194 192 193 186 184 121 104 94 86 106 267 335 355
220 208 210 224 239 212 189 203 202 220 200 210 192 197 199 195 196 187 168 161 159 210 208 200 215 200 161 169 189 192 163 201 212 183 215 199 187 151 154 159 117 13 354 316
129 245 180 248 223 225 212 210 213 212 208 194 210 190 167 171 145 194 203 196 203 171 184 185 213 165 168 179 185 181 177 181 202 158 197 216 202 196 181 160 155 196 244 272
231 248 210 200 189 209 220 219 218 213 199 213 183 166 173 179 202 200 199 163 135 258 223 204 180 169 172 178 189 188 201 188 184 198 182 195 216 203 191 176 176 185 231 270
218 241 230 214 203 196 208 211 216 219 204 168 163 191 199 201 200 188 142 166 188 211 234 187 187 175 179 186 181 189 200 202 180 201 198 179 189 203 195 197 200 214 216 218
244 237 227 226 205 201 217 211 195 206 197 171 182 185 193 204 191 168 165 196 201 203 150 169 176 183 186 181 177 186 198 191 189 197 185 201 205 209 215 218 219 223 218 232
281 266 238 228 229 221 230 193 181 204 191 183 189 202 206 194 172 158 162 212 218 181 163 160 181 185 183 177 177 182 190 190 191 193 196 204 206 220 220 214 220 226 237 230
301 281 267 246 230 242 211 194 202 202 177 193 203 196 182 185 170 188 208 203 166 164 166 172 183 182 181 175 182 185 188 196 197 184 197 201 204 210 217 212 225 223 223 225
301 292 293 266 232 235 258 235 230 194 193 199 199 194 196 194 181 172 213 204 169 176 173 181 176 172 169 176 180 185 189 194 199 198 201 198 203 208 217 222 224 210 219 232
310 312 291 309 341 56 265 243 228 219 187 182 205 199 168 150 308 191 71 133 169 174 180 167 176 177 170 174 176 183 188 190 191 195 197 196 199 199 214 223 229 217 219 227
355 307 291 302 309 269 306 311 117 343 121 110 76 59 113 25 187 162 147 125 146 155 162 171 173 173 173 172 172 176 178 184 187 184 192 198 204 211 217 215 222 223 224 218
344 304 298 300 279 277 231 139 199 221 205 112 62 53 46 20 45 73 118 138 140 147 145 162 168 162 164 166 172 173 180 178 178 195 199 205 207 214 222 226 227 229 235 236
283 306 336 330 349 23 25 152 180 209 194 184 120 153 151 143 115 110 114 117 113 130 142 144 150 150 151 155 163 173 177 183 189 189 195 205 208 221 219 224 227 230 228 228